📊 Raw Sensor Data

Showing records 43176 to 43200 of 85,013 total

ID Distance (ft) Battery V Battery A Int Temp (°F) Int Humid (%) Ext Temp (°F) Solar V RSSI SNR Time Stamp
41850 15.5 3.88 -5 55 44 56 0.00 -73 8 05/28/2025 01:00 AM
41849 15.5 3.74 -5 56 44 56 0.00 -74 7 05/28/2025 12:45 AM
41848 15.5 3.74 -5 56 44 57 0.00 -73 8 05/28/2025 12:30 AM
41847 15.5 3.88 -5 57 45 58 0.00 -73 8 05/28/2025 12:15 AM
41846 15.5 3.88 -5 58 45 58 0.00 -72 8 05/28/2025 12:00 AM
41845 15.5 3.73 -5 59 45 60 0.00 -72 8 05/27/2025 11:45 PM
41844 15.5 3.73 -5 59 45 60 0.00 -73 8 05/27/2025 11:30 PM
41843 15.5 3.73 -5 60 45 61 0.00 -72 8 05/27/2025 11:15 PM
41842 15.5 3.88 -5 61 45 61 0.00 -72 8 05/27/2025 11:00 PM
41841 15.5 3.73 -5 61 46 62 0.10 -74 7 05/27/2025 10:45 PM
41840 15.5 3.73 -5 62 46 63 0.00 -73 8 05/27/2025 10:30 PM
41839 15.1 3.73 -5 63 46 64 0.00 -74 8 05/27/2025 10:15 PM
41838 15.1 3.73 -5 64 47 65 0.00 -72 8 05/27/2025 10:00 PM
41837 15.1 3.75 -5 64 47 65 0.00 -75 8 05/27/2025 09:45 PM
41836 15.1 3.74 -5 65 49 65 0.00 -74 8 05/27/2025 09:30 PM
41835 15.1 3.76 -5 65 50 65 0.00 -73 8 05/27/2025 09:15 PM
41834 15.1 3.76 -5 66 51 66 0.00 -72 7 05/27/2025 09:00 PM
41833 15.5 3.72 -5 68 53 67 0.10 -72 8 05/27/2025 08:45 PM
41832 15.5 3.90 -5 71 55 68 1.50 -73 8 05/27/2025 08:30 PM
41831 15.5 3.78 -23 74 55 71 4.20 -73 8 05/27/2025 08:15 PM
41830 15.6 3.91 0 79 55 74 4.60 -74 7 05/27/2025 08:00 PM
41829 15.6 3.93 0 84 53 78 4.50 -74 7 05/27/2025 07:45 PM
41828 15.7 3.95 9 87 52 82 4.50 -73 8 05/27/2025 07:30 PM
41827 15.7 3.95 5 90 51 81 4.50 -75 7 05/27/2025 07:15 PM
41826 15.7 3.99 10 93 51 85 4.50 -74 8 05/27/2025 07:00 PM